Weather reports worldwide

Advertisment
Cap Corse, France (7785): temperature & dewpoint: 10.01.2021 06:00:00 - 16.01.2021 06:00:00 (CET)Cap Corse, France (7785): wind speed & gusts: 10.01.2021 06:00:00 - 16.01.2021 06:00:00 (CET)Cap Corse, France (7785): wind direction: 10.01.2021 06:00:00 - 16.01.2021 06:00:00 (CET)Cap Corse, France (7785): reduced air pressure: 10.01.2021 06:00:00 - 16.01.2021 06:00:00 (CET)Cap Corse, France (7785): visibility: 10.01.2021 06:00:00 - 16.01.2021 06:00:00 (CET)Cap Corse, France (7785): precipitation: 10.01.2021 06:00:00 - 16.01.2021 06:00:00 (CET)
Date & Time tt [°C] td [°C] ff [km/h] ff [kn] fx [km/h] fx [kn] dd ppp [hPa] vv [km] rr [mm]
16.01.2021 06:00:00 6,4 -0,6 26 14 57 31 ESE 1019,4 - 0,0
16.01.2021 05:00:00 6,7 -0,1 33 18 49 26 ESE 1018,8 - 0,0
16.01.2021 04:00:00 6,6 -0,4 29 16 68 37 E 1018,5 12 0,0
16.01.2021 03:00:00 7,1 -0,9 39 21 76 41 E 1017,9 - 0,0
16.01.2021 02:00:00 7,8 0,3 53 28 72 39 E 1017,2 - 0,0
16.01.2021 01:00:00 7,6 1,9 35 19 64 34 E 1017,1 - 0,0
16.01.2021 00:00:00 8,0 1,6 37 20 58 31 E 1016,8 - 0,0
15.01.2021 23:00:00 8,5 2,5 26 14 46 25 ESE 1016,9 - 0,0
15.01.2021 22:00:00 8,8 3,0 26 14 58 31 ESE 1016,2 - 0,0
15.01.2021 21:00:00 9,6 2,9 45 25 56 31 E 1015,2 - 0,0
15.01.2021 20:00:00 9,4 5,4 10 6 21 11 E 1015,0 - 0,0
15.01.2021 19:00:00 9,7 5,1 16 8 24 13 NE 1014,6 15 0,0
15.01.2021 18:00:00 9,3 5,5 13 7 28 15 NNE 1014,1 - 0,0
15.01.2021 17:00:00 9,9 6,4 21 11 33 18 NNE 1013,8 - 0,0
15.01.2021 16:00:00 10,3 7,0 18 10 27 15 N 1013,3 15 0,0
15.01.2021 15:00:00 10,2 6,5 14 7 29 15 NNE 1013,2 - 0,0
15.01.2021 14:00:00 9,7 7,0 17 9 37 20 N 1013,4 - 0,0
15.01.2021 13:00:00 10,6 6,5 12 6 23 12 NNE 1013,8 - 0,0
15.01.2021 12:00:00 9,4 7,3 17 9 26 14 ENE 1014,2 - 0,0
15.01.2021 11:00:00 8,7 7,0 10 6 28 15 ESE 1014,3 - 0,0
15.01.2021 10:00:00 8,1 6,4 21 12 39 21 ESE 1013,7 10 0,2
15.01.2021 09:00:00 7,7 5,5 31 17 61 33 ESE 1012,9 - 2,5
15.01.2021 08:00:00 8,1 6,2 54 29 67 36 E 1011,9 - 4,0
15.01.2021 07:00:00 9,4 8,5 18 10 31 17 E 1011,2 - 5,8
15.01.2021 06:00:00 9,2 8,0 22 12 62 33 ESE 1010,4 - 4,9
15.01.2021 05:00:00 11,1 9,4 47 25 67 36 N 1009,5 - 0,2
15.01.2021 04:00:00 11,8 7,1 14 7 32 18 W 1010,6 - 0,0
15.01.2021 03:00:00 12,6 6,8 27 15 40 21 SSE 1010,5 - 0,0
15.01.2021 02:00:00 11,8 6,5 26 14 36 19 SSE 1010,5 - 0,0
15.01.2021 01:00:00 11,1 6,0 20 11 37 20 S 1010,9 - 0,0
15.01.2021 00:00:00 11,9 5,7 23 13 50 27 S 1010,8 - 0,0
14.01.2021 23:00:00 12,3 6,1 34 19 47 26 S 1010,1 - 0,0
14.01.2021 22:00:00 10,4 5,6 11 6 23 12 SW 1011,5 14 0,0
14.01.2021 21:00:00 10,5 6,4 17 9 23 13 S 1010,7 - 0,0
14.01.2021 20:00:00 9,8 6,9 11 6 37 20 S 1010,2 - 0,0
14.01.2021 19:00:00 12,3 7,8 34 18 95 51 W 1009,5 - 0,0
14.01.2021 18:00:00 12,4 7,3 49 26 98 53 W 1008,6 - 0,0
14.01.2021 17:00:00 12,7 6,7 65 35 106 57 W 1008,4 - 0,0
14.01.2021 16:00:00 13,0 6,1 67 36 115 62 W 1007,6 - 0,0
14.01.2021 15:00:00 13,2 6,8 74 40 115 62 W 1007,5 - 0,0
14.01.2021 14:00:00 12,9 7,6 82 44 121 65 W 1006,7 - 0,0
14.01.2021 13:00:00 13,1 7,5 64 35 130 70 W 1007,6 14 0,0
14.01.2021 12:00:00 13,1 7,7 66 36 108 58 W 1008,6 - 0,0
14.01.2021 11:00:00 13,1 8,2 68 37 116 63 W 1009,2 - 0,0
14.01.2021 10:00:00 12,8 7,9 69 38 112 60 W 1009,3 14 0,0
14.01.2021 09:00:00 12,5 8,0 66 36 114 62 W 1009,5 - 0,0
14.01.2021 08:00:00 12,5 8,2 65 35 106 57 W 1009,0 - 0,0
14.01.2021 07:00:00 12,5 7,6 58 31 104 56 W 1010,3 - 0,0
14.01.2021 06:00:00 12,7 7,4 68 37 114 61 W 1010,2 - 0,0
14.01.2021 05:00:00 12,7 7,6 61 33 114 62 W 1010,2 - 0,0
14.01.2021 04:00:00 12,6 7,7 51 27 99 53 W 1011,2 - 0,0
14.01.2021 03:00:00 12,9 8,4 59 32 98 53 W 1011,9 - 0,0
14.01.2021 02:00:00 12,7 7,2 60 33 98 53 W 1012,1 - 0,0
14.01.2021 01:00:00 12,6 7,3 45 24 76 41 W 1013,7 12 0,0
14.01.2021 00:00:00 12,8 7,0 30 16 59 32 W 1014,5 - 0,0
13.01.2021 23:00:00 13,0 6,6 32 17 59 32 W 1014,7 - 0,0
13.01.2021 22:00:00 13,0 6,1 26 14 49 26 W 1015,0 12 0,0
13.01.2021 21:00:00 12,5 5,4 20 11 61 33 W 1015,1 - 0,0
13.01.2021 20:00:00 12,7 5,6 29 15 50 27 WSW 1014,8 - 0,0
13.01.2021 19:00:00 12,8 6,6 29 16 66 36 W 1014,8 - 0,0
13.01.2021 18:00:00 12,8 7,0 39 21 74 40 W 1014,8 - 0,0
13.01.2021 17:00:00 12,6 7,1 47 26 81 44 W 1014,6 - 0,0
13.01.2021 16:00:00 12,9 7,8 49 27 100 54 W 1014,2 14 0,0
13.01.2021 15:00:00 13,1 7,5 47 26 81 44 W 1014,3 - 0,0
13.01.2021 14:00:00 12,8 7,7 37 20 79 42 W 1014,5 - 0,0
13.01.2021 13:00:00 13,3 7,5 50 27 84 45 W 1014,4 14 0,0
13.01.2021 12:00:00 12,9 7,1 45 25 85 46 W 1014,9 - 0,0
13.01.2021 11:00:00 12,6 6,2 49 26 81 44 WSW 1014,8 - 0,0
13.01.2021 10:00:00 12,2 6,2 45 25 83 45 W 1014,7 14 0,0
13.01.2021 09:00:00 11,6 6,1 44 24 86 46 W 1014,5 - 0,0
13.01.2021 08:00:00 11,3 6,2 50 27 99 54 W 1013,6 - 0,0
13.01.2021 07:00:00 11,0 5,9 55 30 98 53 W 1013,6 - 0,0
13.01.2021 06:00:00 11,0 5,9 56 31 112 61 W 1012,7 - 0,0
13.01.2021 05:00:00 11,0 5,9 49 26 87 47 W 1012,9 - 0,0
13.01.2021 04:00:00 10,8 4,7 45 24 86 47 W 1012,4 15 0,0
13.01.2021 03:00:00 10,5 3,7 36 19 84 45 W 1012,8 - 0,0
13.01.2021 02:00:00 10,3 2,9 31 17 65 35 W 1013,2 - 0,0
13.01.2021 01:00:00 10,0 2,6 23 12 48 26 W 1013,8 - 0,0
13.01.2021 00:00:00 9,8 1,9 17 9 41 22 W 1014,2 - 0,0
12.01.2021 23:00:00 8,6 1,0 20 11 35 19 WSW 1014,1 - 0,0
12.01.2021 22:00:00 8,6 0,8 21 11 35 19 WSW 1014,4 - 0,0
12.01.2021 21:00:00 9,3 2,8 21 12 60 32 W 1014,4 - 0,0
12.01.2021 20:00:00 9,9 4,3 39 21 84 46 W 1013,6 - 0,0
12.01.2021 19:00:00 9,9 4,5 44 24 76 41 W 1014,0 18 0,0
12.01.2021 18:00:00 9,2 3,4 38 20 66 36 W 1014,1 - 0,0
12.01.2021 17:00:00 8,9 2,9 36 20 63 34 W 1014,8 - 0,0
12.01.2021 16:00:00 9,6 2,4 35 19 58 32 W 1015,2 18 0,0
12.01.2021 15:00:00 9,9 1,5 34 18 51 28 W 1015,5 - 0,0
12.01.2021 14:00:00 10,1 2,4 36 20 54 29 W 1016,1 - 0,0
12.01.2021 13:00:00 9,5 1,6 35 19 56 30 W 1016,5 - 0,0
12.01.2021 12:00:00 9,7 2,1 30 16 63 34 W 1016,9 - 0,0
12.01.2021 11:00:00 8,8 1,9 26 14 40 22 W 1017,8 - 0,0
12.01.2021 10:00:00 8,0 1,4 20 11 33 18 W 1017,8 - 0,0
12.01.2021 09:00:00 5,9 0,6 21 11 26 14 WSW 1017,3 - 0,0
12.01.2021 08:00:00 4,6 -0,2 11 6 18 10 W 1017,4 - 0,0
12.01.2021 07:00:00 5,5 -1,9 9 5 22 12 NNW 1017,3 18 0,0
12.01.2021 06:00:00 5,5 -1,7 6 3 21 11 NNW 1017,2 - 0,0
12.01.2021 05:00:00 5,5 -1,4 8 4 24 13 NNE 1017,3 - 0,0
12.01.2021 04:00:00 5,5 -1,2 13 7 21 11 NNE 1017,6 - 0,0
12.01.2021 03:00:00 5,1 -2,0 9 5 27 15 E 1018,0 - 0,0
12.01.2021 02:00:00 5,3 -2,3 21 11 32 17 E 1017,8 - 0,0
12.01.2021 01:00:00 5,2 -2,4 22 12 38 20 E 1017,8 - 0,0
12.01.2021 00:00:00 6,5 -2,2 28 15 42 23 E 1018,0 - 0,0
11.01.2021 23:00:00 6,3 -2,1 28 15 50 27 E 1018,0 - 0,0
11.01.2021 22:00:00 6,6 -1,6 32 17 49 26 E 1017,9 - 0,0
11.01.2021 21:00:00 7,0 -0,9 34 19 49 26 E 1017,7 - 0,0
11.01.2021 20:00:00 6,3 -0,9 22 12 46 25 E 1017,5 - 0,0
11.01.2021 19:00:00 7,4 -2,1 10 5 32 17 NE 1017,2 20 0,0
11.01.2021 18:00:00 7,1 -1,3 24 13 36 20 ENE 1016,9 - 0,0
11.01.2021 17:00:00 6,8 -1,9 24 13 39 21 E 1016,9 - 0,0
11.01.2021 16:00:00 7,0 -1,7 27 15 42 23 E 1016,9 - 0,0
11.01.2021 15:00:00 7,4 -2,1 29 16 48 26 E 1016,7 - 0,0
11.01.2021 14:00:00 7,5 -2,5 33 18 51 27 E 1016,5 - 0,0
11.01.2021 13:00:00 7,6 -2,2 37 20 62 34 E 1016,9 - 0,0
11.01.2021 12:00:00 7,6 -1,6 46 25 68 37 E 1017,2 - 0,0
11.01.2021 11:00:00 7,2 -1,0 41 22 67 36 E 1017,7 - 0,0
11.01.2021 10:00:00 7,0 -0,7 41 22 64 35 E 1017,2 - 0,0
11.01.2021 09:00:00 6,7 -1,5 49 26 71 38 E 1016,4 - 0,0
11.01.2021 08:00:00 6,5 -0,7 45 25 68 37 E 1015,6 - 0,0
11.01.2021 07:00:00 6,9 -0,8 47 26 60 33 E 1015,1 15 0,0
11.01.2021 06:00:00 7,4 0,1 39 21 61 33 E 1014,5 - 0,0
11.01.2021 05:00:00 7,3 -0,4 43 23 62 34 E 1014,1 - 0,0
11.01.2021 04:00:00 7,6 0,6 42 23 56 31 E 1014,4 - 0,0
11.01.2021 03:00:00 7,7 0,6 39 21 53 29 E 1014,5 - 0,0
11.01.2021 02:00:00 7,4 1,0 31 17 52 28 E 1014,5 - 0,0
11.01.2021 01:00:00 7,6 1,6 38 21 55 30 E 1014,4 - 0,0
11.01.2021 00:00:00 7,9 1,9 36 19 55 30 E 1014,0 - 0,0
10.01.2021 23:00:00 8,1 1,5 43 23 57 31 E 1013,8 - 0,0
10.01.2021 22:00:00 8,0 1,6 37 20 58 32 E 1014,1 12 0,0
10.01.2021 21:00:00 8,0 1,8 37 20 51 28 E 1013,3 - 0,0
10.01.2021 20:00:00 8,2 2,2 35 19 54 29 E 1013,1 - 0,0
10.01.2021 19:00:00 8,2 2,0 40 22 67 36 E 1012,6 5 0,0
10.01.2021 18:00:00 7,9 1,3 55 30 78 42 E 1011,8 - 0,0
10.01.2021 17:00:00 7,8 2,7 59 32 77 42 E 1011,6 - 0,0
10.01.2021 16:00:00 8,0 3,6 53 28 80 43 E 1011,5 5 0,0
10.01.2021 15:00:00 7,6 3,8 55 30 73 40 E 1011,2 - 0,0
10.01.2021 14:00:00 7,5 4,4 57 31 78 42 E 1011,1 - 0,0
10.01.2021 13:00:00 7,2 4,7 57 31 80 43 E 1011,5 - 0,0
10.01.2021 12:00:00 7,0 5,3 63 34 86 47 E 1011,2 - 0,0
10.01.2021 11:00:00 6,5 5,4 64 35 80 43 E 1011,8 - 0,0
10.01.2021 10:00:00 6,7 5,6 60 32 85 46 E 1012,1 5 0,0
10.01.2021 09:00:00 6,9 5,7 66 35 85 46 E 1011,1 - 0,4
10.01.2021 08:00:00 7,1 5,7 66 35 87 47 E 1010,4 - 0,2
10.01.2021 07:00:00 7,0 4,6 61 33 80 43 E 1010,2 10 0,0
10.01.2021 06:00:00 7,0 5,0 54 29 77 41 E 1010,6 - 0,2

tt = temperature
td = dewpoint
ff = wind speed
fx = gusts
dd = wind direction
ppp = reduced air pressure
vv = visibility
rr = precipitation

Next stations